Location: Bégole
(43.1574°N, 0.3291°E)
Time: 03:28:28
(UTC+00:00)

Cosmos 2263 Rocket - Pass Details

Date: 28 January 2023
Orbit: 824 x 847 km, 71.0° (Epoch: 27 March)

Event Time Altitude Azimuth Distance (km) Brightness Sun altitude
Rises 18:51:33 0° 331° (NNW) 3,373 5.6 -19.4°
Reaches altitude 10° 18:54:01 10° 328° (NNW) 2,434 4.9 -19.9°
Maximum altitude 18:59:28 59° 250° (WSW) 951 2.7 -20.9°
Drops below altitude 10° 19:04:54 10° 172° (S) 2,418 4.5 -21.9°
Sets 19:07:21 0° 169° (S) 3,348 5.3 -22.3°
